OBJECT A, 64058

Orbit data source: Space-Track

You're viewing an Uncataloged Satellite

Recently launched and/or uncataloged satellites may have evolving metadata. Metadata may include but not limited to: Owner, Maufacturer, Bus, Motor, and Mission.

OBJECT A, 64058 is a satellite owned by Guodian Gaokeji (CN) in LEO that was launched on Mon, 19 May 2025 UTC via a GUSHENXING 1 launch vehicle from the Yellow Sea Launch Area, China (YSLA). Unknown objects in Earth's orbit typically refer to objects detected orbiting the Earth but have not yet been identified or cataloged. These objects could be anything from previously untracked satellites, spent rocket stages, debris from satellite collisions, or even natural meteoroids temporarily captured by Earth's gravity.

Loading next visibility...
Identifier
64058, 2025-105A
Orbit
LEO
Last TLE update
1 week ago
Origin
Flag of CNGUOG (CN / PRC)
Manufacturer
Shanghai ASES
Mission
Operational spacecraft
Bus & Motor
STARLIGHTB, Unknown motor
Mass
40 kg wet, ~40 kg dry
Launch date (UTC)
2025-05-19 (1 month ago)
Launch vehicle
GUSHENXING 1
Launch site
Yellow Sea Launch Area, China (YSLA)
Object type
Unknown
Shape & HBR
Unknown
Radar Cross Section
Medium (>0.1 m² and <1 m²)

Expand to show TLE details & history

TLE from 1 week ago
0 OBJECT A
1 64058U 25105A   25163.62775521 -.00000027  00000-0  58558-4 0  9993
2 64058  44.9783 226.6199 0011805  82.2486  21.2906 14.11082044  3435
Epoch: 2025-06-12T15:03Z
TLE epoch observation values (Epoch: 2025-06-12T15:03:58.05Z)
Latitude
43.54552°
Longitude
-151.68078°
Altitude
851.254 km
Speed
7.437 km/s
True Right ascension
22h 22m 01s
True Declination
43° 22' 34"
Sunlit
Object was in daylight at epoch
Visualization orbit readout
Latitude
15.40202°
Longitude
-126.74593°
Altitude
848.789 km
Speed
7.434 km/s
Apparent Right ascension
02h 19m 25s
Apparent Declination
-14° 01' 03"
Sunlit
Object is in daylight
Visualization observer readout
Local Sidereal Time
17:53:29
Azimuth
76.702° E
Elevation
-36.718°
Doppler factor
1
Orbital elements
Apogee altitude
865.743 km
Perigee altitude
848.66 km
Semi-major axis
7,235.339 km
Eccentricity
0.00118
Inclination
44.9783°
RAAN
226.6199°
Arg. of periapsis
82.2486°
True anomaly
Unknown
Mean anomaly
21.2906°
Eccentric anomaly
Unknown
Mean motion
3.52659 °/min
Orbital period
102.08 mins
BSTAR
0.000058558
Loading maneuver chart data...
Loading SW <> Apogee altitude chart data...
Loading historical data...
Loading historical data...
Loading historical data...
Loading historical data...
Loading historical data...
Loading historical data...
Loading historical data...
Other satellites on launch #105 in the year 2025 (2025-05-19 UTC)

OBJECT A Visibility forecast

Observer location: undefined°, undefined°

Span
Click to sort rows by Start time (UTC) header in descending order
Start Az.
Max El. time (UTC)
Max El. Az.
Max El.
End time (UTC)
End Az.
11 mins2025-06-19 08:20:54.487Z286.458° WNW2025-06-19 08:25:54.487Z346.006° N37.765°2025-06-19 08:31:54.487Z78.674° E
9 mins2025-06-19 10:09:54.487Z294.729° NW2025-06-19 10:13:54.487Z344.539° N44.673°2025-06-19 10:18:54.487Z110.238° ESE
8 mins2025-06-19 11:57:54.487Z268.063° W2025-06-19 12:00:54.487Z222.727° SW28.141°2025-06-19 12:05:54.487Z158.996° S
9 mins2025-06-20 04:34:54.487Z214.117° SW2025-06-20 04:38:54.487Z151.934° SSE37.108°2025-06-20 04:43:54.487Z74.978° E
10 mins2025-06-20 06:21:54.487Z263.981° W2025-06-20 06:25:54.487Z316.537° NNW41.884°2025-06-20 06:31:54.487Z66.364° ENE
|